TimeHST,TemperatureF,Dew PointF,Humidity,Sea Level PressureIn,VisibilityMPH,Wind Direction,Wind SpeedMPH,Gust SpeedMPH,PrecipitationIn,Events,Conditions,WindDirDegrees,DateUTC
12:57 AM,71.6,66.0,82,30.17,10.0,ENE,12.7,23.0,N/A,,Mostly Cloudy,70,2013-02-26 10:57:00
1:25 AM,71.6,64.4,78,30.17,6.2,East,12.7,20.7,N/A,,Mostly Cloudy,80,2013-02-26 11:25:00
1:34 AM,71.6,64.4,78,30.16,6.2,East,12.7,19.6,N/A,,Mostly Cloudy,80,2013-02-26 11:34:00
1:57 AM,71.1,64.0,78,30.14,10.0,ENE,12.7,19.6,N/A,,Partly Cloudy,70,2013-02-26 11:57:00
2:57 AM,71.1,63.0,75,30.12,10.0,ENE,11.5,23.0,N/A,,Scattered Clouds,70,2013-02-26 12:57:00
3:57 AM,71.4,62.1,72,30.12,10.0,ENE,13.8,24.2,N/A,,Partly Cloudy,70,2013-02-26 13:57:00
4:57 AM,70.5,62.1,74,30.11,10.0,East,13.8,24.2,0.01,,Scattered Clouds,80,2013-02-26 14:57:00
5:57 AM,70.9,62.1,74,30.12,10.0,ENE,10.4,20.7,N/A,,Scattered Clouds,70,2013-02-26 15:57:00
6:57 AM,71.1,61.0,70,30.14,10.0,ENE,11.5,21.9,N/A,,Partly Cloudy,70,2013-02-26 16:57:00
7:57 AM,72.3,62.1,70,30.15,10.0,ENE,11.5,20.7,N/A,,Partly Cloudy,70,2013-02-26 17:57:00
8:57 AM,73.6,61.0,65,30.16,10.0,ENE,9.2,21.9,N/A,,Scattered Clouds,70,2013-02-26 18:57:00
9:57 AM,75.2,63.0,66,30.17,7.0,ENE,15.0,23.0,N/A,,Scattered Clouds,70,2013-02-26 19:57:00
10:57 AM,75.2,62.1,64,30.17,7.0,ENE,12.7,23.0,N/A,,Scattered Clouds,60,2013-02-26 20:57:00
11:57 AM,80.6,62.1,53,30.15,7.0,ENE,10.4,20.7,N/A,,Scattered Clouds,60,2013-02-26 21:57:00
12:57 PM,77.0,62.1,60,30.14,7.0,ENE,12.7,19.6,0.01,Rain,Light Rain,60,2013-02-26 22:57:00
1:57 PM,77.7,62.6,60,30.12,7.0,ENE,9.2,19.6,N/A,,Partly Cloudy,70,2013-02-26 23:57:00
2:57 PM,77.0,63.0,62,30.11,7.0,ENE,12.7,21.9,0.01,,Scattered Clouds,60,2013-02-27 00:57:00
3:57 PM,77.0,64.9,66,30.11,7.0,ENE,11.5,20.7,N/A,,Scattered Clouds,70,2013-02-27 01:57:00
4:57 PM,77.0,62.1,60,30.12,7.0,ENE,11.5,18.4,N/A,,Scattered Clouds,60,2013-02-27 02:57:00
5:57 PM,77.0,64.0,64,30.12,7.0,ENE,10.4,19.6,N/A,,Partly Cloudy,60,2013-02-27 03:57:00
6:57 PM,73.4,64.9,75,30.13,7.0,ENE,10.4,26.5,N/A,,Clear,60,2013-02-27 04:57:00
7:57 PM,73.4,66.0,78,30.15,7.0,ENE,15.0,24.2,N/A,,Scattered Clouds,70,2013-02-27 05:57:00
8:57 PM,73.4,70.0,89,30.16,7.0,ENE,10.4,20.7,0.01,,Mostly Cloudy,60,2013-02-27 06:57:00
9:57 PM,73.4,64.9,75,30.18,7.0,ENE,13.8,20.7,N/A,,Mostly Cloudy,70,2013-02-27 07:57:00
10:57 PM,73.4,66.9,80,30.18,7.0,East,15.0,23.0,N/A,,Scattered Clouds,80,2013-02-27 08:57:00
11:57 PM,73.4,63.0,70,30.18,7.0,East,18.4,27.6,N/A,,Scattered Clouds,80,2013-02-27 09:57:00